Montgomery, NY

5:27 PM EST on February 26, 2017 (GMT -0500)
Orange County

Weather History for KMGJ - April, 2013

Change the Weather History Date:

Saturday, April 20, 2013

  Actual Average (KSWF) Record (KSWF)
Temperature  
Mean Temperature 50 °F -  
Max Temperature 57 °F 59 °F 93 °F (1976)
Min Temperature 39 °F 37 °F 25 °F (1979)
Degree Days  
Heating Degree Days 16    
Moisture  
Dew Point 35 °F    
Average Humidity 64    
Maximum Humidity 93    
Minimum Humidity 28    
Precipitation  
Precipitation 0.13 in - - ()
Sea Level Pressure  
Sea Level Pressure 29.90 in    
Wind  
Wind Speed 9 mph (NW)    
Max Wind Speed 20 mph    
Max Gust Speed 25 mph    
Visibility 10 miles    
Events Rain    
Averages and records for this station are not official NWS values.
T = Trace of Precipitation, MM = Missing Value Source: NWS Daily Summary

Daily Weather History Graph

Daily Weather History Graph

Search for Another Location

Airport or City:

Trip Planner

Search our weather history database for the weather conditions in past years. The results will help you decide how hot, cold, wet, or windy it might be!

Date:

Astronomy

Apr. 20, 2013 Rise Set
Actual Time 6:09 AM EDT 7:43 PM EDT
Civil Twilight 5:40 AM EDT 8:12 PM EDT
Nautical Twilight 5:04 AM EDT 8:47 PM EDT
Astronomical Twilight 4:27 AM EDT 9:25 PM EDT
Moon 2:20 PM EDT (4/20) 3:01 AM EDT (4/20)
Length of Visible Light 14h 32m
Length of Day
13h 33m
Waxing Gibbous, 71% of the Moon is Illuminated
Apr 20
Waxing Gibbous
Apr 25
Full
May 2
Last Quarter
May 9
New
May 18
First Quarter

Hourly Weather History & Observations

Time (EDT) Temp. Windchill Dew Point Humidity Pressure Visibility Wind Dir Wind Speed Gust Speed Precip Events Conditions
12:54 AM 51.1 °F - 48.0 °F 89% 29.69 in 10.0 mi South 6.9 mph - 0.02 in Rain Light Rain
1:54 AM 51.1 °F - 48.0 °F 89% 29.71 in 10.0 mi SW 9.2 mph - 0.01 in Rain Light Rain
2:54 AM 51.1 °F - 48.0 °F 89% 29.72 in 7.0 mi WSW 8.1 mph - 0.04 in Rain Rain
3:11 AM 48.2 °F - 46.4 °F 93% 29.73 in 10.0 mi North 12.7 mph - 0.01 in Rain Light Rain
3:26 AM 46.4 °F 41.1 °F 44.6 °F 93% 29.72 in 8.0 mi NNE 11.5 mph - 0.02 in Rain Light Rain
3:37 AM 46.4 °F 41.5 °F 44.6 °F 93% 29.72 in 10.0 mi NNE 10.4 mph - 0.02 in Rain Light Rain
3:54 AM 46.0 °F 41.4 °F 43.0 °F 89% 29.72 in 7.0 mi NE 9.2 mph - 0.03 in Rain Light Rain
4:24 AM 46.4 °F 42.4 °F 42.8 °F 87% 29.74 in 8.0 mi North 8.1 mph - 0.02 in Rain Light Rain
4:51 AM 44.6 °F 40.7 °F 42.8 °F 93% 29.77 in 10.0 mi North 6.9 mph - 0.02 in Rain Light Rain
4:54 AM 45.0 °F 41.8 °F 42.1 °F 90% 29.78 in 10.0 mi NNE 5.8 mph - 0.02 in Rain Light Rain
5:02 AM 44.6 °F 41.4 °F 42.8 °F 93% 29.78 in 10.0 mi NNE 5.8 mph - 0.00 in Rain Light Rain
5:25 AM 44.6 °F 42.2 °F 42.8 °F 93% 29.79 in 10.0 mi NNE 4.6 mph - 0.01 in Rain Light Rain
5:33 AM 44.6 °F 43.1 °F 42.8 °F 93% 29.79 in 10.0 mi NE 3.5 mph - 0.01 in Rain Light Rain
5:54 AM 45.0 °F - 42.1 °F 90% 29.82 in 10.0 mi Calm Calm - 0.01 in   Overcast
6:54 AM 45.0 °F - 42.1 °F 90% 29.84 in 10.0 mi Calm Calm - N/A   Mostly Cloudy
7:54 AM 46.9 °F - 39.9 °F 77% 29.86 in 10.0 mi WSW 4.6 mph - N/A   Clear
8:54 AM 48.0 °F - 32.0 °F 54% 29.87 in 10.0 mi West 15.0 mph 25.3 mph N/A   Clear
9:54 AM 48.9 °F - 27.0 °F 43% 29.88 in 10.0 mi West 15.0 mph 25.3 mph N/A   Clear
10:54 AM 50.0 °F - 27.0 °F 41% 29.94 in 10.0 mi WSW 11.5 mph 20.7 mph N/A   Clear
11:54 AM 51.1 °F - 28.9 °F 43% 29.95 in 10.0 mi WSW 15.0 mph - N/A   Overcast
12:54 PM 55.9 °F - 28.9 °F 36% 29.94 in 10.0 mi West 17.3 mph 23.0 mph N/A   Overcast
1:54 PM 57.0 °F - 30.0 °F 36% 29.94 in 10.0 mi SW 19.6 mph 25.3 mph N/A   Scattered Clouds
2:54 PM 55.9 °F - 27.0 °F 33% 29.95 in 10.0 mi West 11.5 mph 21.9 mph N/A   Scattered Clouds
3:54 PM 57.0 °F - 26.1 °F 30% 29.96 in 10.0 mi West 16.1 mph 25.3 mph N/A   Scattered Clouds
4:54 PM 57.0 °F - 24.1 °F 28% 30.00 in 10.0 mi WNW 12.7 mph 24.2 mph N/A   Partly Cloudy
5:54 PM 55.0 °F - 24.1 °F 30% 30.03 in 10.0 mi NW 9.2 mph - N/A   Scattered Clouds
6:54 PM 53.1 °F - 24.1 °F 32% 30.06 in 10.0 mi NW 8.1 mph 16.1 mph N/A   Clear
7:54 PM 50.0 °F - 24.1 °F 36% 30.12 in 10.0 mi NW 11.5 mph 19.6 mph N/A   Partly Cloudy
8:54 PM 46.9 °F - 26.1 °F 44% 30.19 in 10.0 mi NW 9.2 mph - N/A   Clear
9:54 PM 45.0 °F 37.9 °F 24.1 °F 44% 30.25 in 10.0 mi NW 16.1 mph 23.0 mph N/A   Clear
10:54 PM 42.1 °F 35.7 °F 19.9 °F 41% 30.29 in 10.0 mi NNW 11.5 mph - N/A   Clear
11:54 PM 39.0 °F 31.8 °F 18.0 °F 43% 30.32 in 10.0 mi NW 11.5 mph 16.1 mph N/A   Clear